Location: Hautefage
(45.0825°N, 2.0015°E)
Time: 07:03:19
(UTC+00:00)

Daily predictions for brighter satellites

Satellite Brightness Start Highest point End
(mag) Time Altitude Azimuth Time Altitude Azimuth Time Altitude Azimuth
GENESIS II 4.3 17:10:15 10° SSW 17:14:16 75° SE 17:18:18 10° NE
CZ-4B R/B 3.4 17:10:13 10° SSE 17:15:51 87° WSW 17:21:24 10° NNW
Okean-O 3.9 17:15:21 10° ESE 17:18:38 21° ENE 17:21:56 10° NNE
AQUARIUS 4.2 17:15:58 10° SSE 17:20:28 84° ENE 17:25:00 10° NNW
SKYMED 2 4.5 17:16:53 10° NE 17:20:39 28° E 17:24:22 10° SSE
Cosmos 1689 Rocket 3.5 17:19:45 10° NE 17:21:50 18° E 17:23:54 10° SE
Cosmos 1400 Rocket 3.7 17:20:02 10° SSE 17:23:35 29° E 17:27:09 10° NNE
Cosmos 1908 4.3 17:21:47 10° SSW 17:25:30 49° WNW 17:29:18 10° N
H-2A R/B 3.5 17:23:03 10° E 17:26:39 18° ENE 17:30:16 10° NNE
Cosmos 2227 Rocket 2.8 17:23:37 10° NNW 17:28:49 36° NE 17:34:00 10° ESE
CZ-4 R/B 2.6 17:26:00 10° ESE 17:28:53 20° ENE 17:31:46 10° NNE
Cosmos 2266 Rocket 4.5 17:23:13 10° NNW 17:29:25 69° W 17:35:42 10° S
Cosmos 2058 4.4 17:27:11 10° NNE 17:29:50 17° ENE 17:32:30 10° ESE
Meteor 2-16 Rocket 4.5 17:24:16 10° N 17:30:18 60° ENE 17:36:18 10° SSE
Cosmos 1892 3.9 17:28:16 10° NNE 17:31:18 21° ENE 17:34:20 10° ESE
BREEZE-M R/B 4.5 17:23:12 10° W 17:34:23 57° NNW 17:37:09 13° ENE
Cosmos 1408 4.2 17:33:13 10° NNE 17:35:26 15° ENE 17:37:15 11° ESE
CZ-4C R/B 4.4 17:35:18 10° NNW 17:39:22 17° NNE 17:43:50 10° NE
Cosmos 1300 2.6 17:38:06 10° S 17:41:54 80° E 17:45:44 10° N
Cosmos 1953 Rocket 3.5 17:37:54 10° N 17:42:20 78° E 17:46:47 10° SSE
Cosmos 1697 Rocket 3.7 17:40:47 10° SSE 17:45:11 24° ESE 17:49:35 10° NE
Cosmos 2058 Rocket 3.2 17:40:51 10° S 17:45:12 52° E 17:49:36 10° NNE
Cosmos 1331 Rocket 4.3 17:40:37 10° SSW 17:45:45 72° WNW 17:50:56 10° NNE
SL-4 R/B 3.0 17:43:32 10° WNW 17:46:39 28° N 17:49:04 15° NE
IRS-1C Rocket 4.1 17:42:19 10° SSE 17:47:30 64° ENE 17:52:44 10° N
CZ-2D R/B 3.6 17:44:06 10° SE 17:47:41 41° ENE 17:51:17 10° N
SeaSat 1 3.9 17:46:27 15° ENE 17:48:35 19° NE 17:52:00 10° N
Cosmos 1346 Rocket 3.8 17:46:50 10° NNE 17:50:13 26° ENE 17:53:36 10° SE
USA 305 3.8 17:46:57 10° NW 17:50:55 34° NNE 17:53:27 18° ENE
Cosmos 1825 3.9 17:50:01 10° NNE 17:51:38 15° NE 17:51:38 15° NE
Cosmos 44 3.4 17:48:54 10° SW 17:53:22 72° NW 17:58:10 10° NNE
Cosmos 1315 Rocket 3.9 17:51:46 10° SE 17:54:50 22° E 17:56:19 18° ENE
NOAA 11 4.4 17:49:33 10° S 17:55:00 78° WSW 18:00:28 10° NNW
USA 215 4.3 17:51:39 13° ENE 17:56:32 33° N 18:02:13 10° NW
USA 306 3.7 17:53:22 10° NW 17:57:20 36° NNE 17:59:35 21° ENE
SAR-Lupe-4 3.6 17:56:25 10° NNE 18:00:01 81° WNW 18:03:36 10° SSW
ERS-2 3.4 17:56:36 10° N 18:00:04 42° WNW 18:03:31 10° SW
BREEZE-M R/B 3.8 17:57:02 10° WNW 18:00:42 51° N 18:05:18 19° E
ATLAS 2AS CENTAUR R/B 4.0 17:55:13 10° NNW 18:01:25 26° NNE 18:05:17 17° ENE
Cosmos 968 Rocket 3.6 17:59:21 10° NNW 18:04:29 54° ENE 18:09:32 10° SE
Cosmos 1340 2.5 18:01:27 10° N 18:05:15 78° E 18:09:01 10° SSE
Cosmos 1980 Rocket 3.5 18:04:02 10° SE 18:07:19 19° ESE 18:07:19 19° ESE
COSMO-SKYMED 1 2.5 18:04:30 10° NNE 18:08:52 89° E 18:13:12 10° SSW
Cosmos 2297 Rocket 2.1 18:03:12 10° NNW 18:08:55 83° ENE 18:14:35 10° SSE
MOS 1 Rocket 4.0 18:05:21 10° NNE 18:09:35 32° E 18:14:01 10° SSE
Cosmos 1076 Rocket 4.2 18:06:31 10° N 18:10:20 31° ENE 18:11:36 26° ESE
Aureole 3 Rocket 3.1 18:06:54 10° S 18:10:46 88° W 18:16:11 10° N
In-Cosmos 22 Rocket 4.0 18:06:05 10° N 18:11:28 81° ENE 18:16:56 10° SSE
S3M 4.0 18:08:49 10° SSE 18:14:42 53° E 18:20:40 10° NNE
CSL-04 Debris 4.4 18:09:55 10° SE 18:15:03 45° ENE 18:20:15 10° N
Cosmos 1302 Rocket 4.2 18:11:29 10° SSW 18:16:44 75° WNW 18:22:03 10° NNE
Lacrosse 5 3.6 18:17:21 10° NW 18:21:12 21° N 18:23:30 16° NE
SL-08 ROCKET BODY 4.3 18:15:05 10° N 18:21:12 72° E 18:27:22 10° SSE
Okean O Rocket 4.4 18:18:12 10° SW 18:21:29 21° W 18:24:46 10° NW
FALCON 9 DEB 3.8 18:19:24 10° W 18:22:30 43° NNW 18:23:30 32° NNE
YAOGAN 1 2.4 18:18:25 10° SSE 18:22:42 68° ENE 18:27:02 10° N
Aureole 3 3.8 18:21:31 10° SSW 18:24:34 45° W 18:27:27 10° N
Cosmos 1486 Rocket 3.9 18:19:39 10° NNW 18:25:01 83° ENE 18:30:20 10° SSE
Cosmos 1417 Rocket 4.4 18:19:30 10° S 18:25:44 80° E 18:32:05 10° N
FALCON 9 DEB 4.0 18:23:41 10° W 18:26:44 39° NNW 18:27:30 32° NNE
Milstar 3 4.4 18:23:13 10° SW 18:28:02 20° S 18:31:52 13° SE
Cosmos 1812 Rocket 3.8 18:25:27 10° SSE 18:29:38 44° E 18:30:36 37° ENE
Cosmos 1455 2.1 18:26:43 10° S 18:30:24 56° E 18:31:13 44° NE
CZ-2C R/B 3.2 18:26:58 10° SSE 18:32:46 82° ENE 18:38:26 10° NNW
Cosmos 1503 Rocket 4.0 18:29:39 10° NNW 18:34:50 59° ENE 18:37:12 31° SE
Cosmos 44 Rocket 4.0 18:31:54 10° S 18:35:26 33° SE 18:35:26 33° SE
Cosmos 2278 4.2 18:32:02 10° S 18:36:45 35° ESE 18:36:45 35° ESE
CZ-4B R/B 4.5 18:36:39 10° NNW 18:38:27 14° WNW 18:40:14 10° W
FALCON 9 DEB 4.1 18:35:49 10° W 18:38:50 35° NNW 18:39:09 34° N
Cosmos 2219 3.9 18:33:34 10° NNW 18:39:12 56° WSW 18:44:47 10° S
DMSP B5D1-3 4.4 18:34:59 10° NNE 18:40:08 67° ESE 18:45:15 10° S
USA 307 3.0 18:36:17 10° NW 18:40:31 55° NNE 18:40:52 53° NE
Meteor 2-10 Rocket 3.5 18:38:24 10° S 18:43:45 88° W 18:48:55 10° N
Cosmos 1553 Rocket 4.3 18:37:55 10° SSW 18:44:15 69° W 18:50:31 10° N
USA 308 3.0 18:41:07 10° NW 18:45:22 59° NNE 18:45:31 58° NE
Cosmos 1354 Rocket 3.9 18:41:10 10° NNW 18:46:25 65° ENE 18:47:53 45° SE
Helios 1A Rocket 4.1 18:43:06 10° S 18:47:02 43° W 18:50:59 10° NNW
Cosmos 2082 3.6 18:42:14 10° NNW 18:48:00 78° ENE 18:50:45 32° SE
Meteor 2-15 Rocket 4.4 18:45:56 10° S 18:52:06 89° E 18:58:17 10° N
Okean-O 3.8 18:50:36 10° S 18:54:49 44° W 18:59:05 10° NNW
Cosmos 1992 Rocket 4.0 18:50:32 10° SSW 18:55:44 83° WNW 18:59:48 17° NNE
ARGOS 3.0 18:54:41 40° SE 18:56:40 71° ENE 19:02:05 10° N
Cosmos 2369 3.6 18:54:56 10° SSW 19:00:39 82° ESE 19:03:10 35° NNE
CZ-4 R/B 3.0 19:00:11 10° SSW 19:03:44 33° W 19:07:16 10° NNW
H-2A R/B 2.3 19:00:03 10° S 19:05:27 75° WSW 19:10:56 10° NNW
Ariane Rocket 4.2 19:07:51 28° NNE 19:07:51 28° NNE 19:10:30 10° N
GEOS 3 Rocket 3.6 19:05:40 57° SE 19:06:49 88° SW 19:12:15 10° NW
Cosmos 2058 4.0 19:03:06 10° NNW 19:06:59 43° W 19:10:52 10° SSW
Geosat 4.1 19:06:43 32° NNE 19:09:06 73° WNW 19:14:06 10° SW
Cosmos 1408 4.0 19:07:12 10° NNW 19:10:36 37° W 19:11:40 29° SW
Cosmos 2227 Rocket 3.5 19:07:41 10° NW 19:12:53 38° WSW 19:18:04 10° S
CSL-04 Rocket 4.1 19:09:17 10° S 19:14:46 63° WSW 19:20:15 10° NNW
Atlas Centaur 2 4.1 19:11:41 10° SW 19:18:38 29° S 19:20:08 27° SSE
Cosmos 2263 Rocket 3.2 19:13:35 10° NNW 19:17:16 33° NNE 19:17:16 33° NNE
Timation 1 Rocket 4.2 19:13:56 10° NNW 19:20:00 89° ENE 19:20:33 75° SSE
SeaSat 1 2.7 19:26:15 66° NW 19:26:15 66° NW 19:30:32 10° NNW
SL-4 R/B 4.0 19:23:08 10° NW 19:24:38 23° NW 19:24:38 23° NW
Cosmos 1825 4.2 19:24:35 10° NNW 19:26:28 24° NW 19:26:28 24° NW
Cosmos 1697 Rocket 3.3 19:23:16 10° SW 19:28:44 54° WNW 19:31:25 29° N
CZ-4C R/B 3.7 19:23:46 10° NNW 19:29:36 35° NNE 19:29:36 35° NNE
USA 305 4.3 19:26:55 10° WNW 19:29:36 36° WNW 19:29:36 36° WNW
NOSS 3-4 (A) 3.8 19:24:40 10° NW 19:31:36 65° NE 19:31:39 65° NE
NOSS 3-4 (C) 3.8 19:24:46 10° NW 19:31:42 65° NE 19:31:44 65° NE
DEBRIS 4.1 19:20:01 10° WSW 19:36:18 76° NNW 19:36:49 71° NNE
USA 215 3.5 19:39:00 54° NNE 19:39:00 54° NNE 19:45:07 10° NW
NOSS 3-3 (A) 4.5 19:34:22 10° WSW 19:40:08 55° NW 19:41:47 44° N
NOSS 3-3 (C) 4.4 19:34:28 10° WSW 19:40:15 56° NW 19:41:53 44° N
Cosmos 1709 Rocket 4.5 19:34:23 10° NNW 19:40:39 60° W 19:44:29 24° SSW
Cosmos 1980 Rocket 3.3 19:45:47 10° SW 19:49:11 37° SW 19:49:11 37° SW
ATLAS 2AS CENTAUR R/B 3.0 19:46:19 10° NW 19:52:43 61° N 19:52:43 61° N
Lacrosse 5 4.0 20:00:50 10° NW 20:02:41 20° NNW 20:02:41 20° NNW
